Year,Month,Day,Hour,Minute,Value (Times are PST for temperature in C)
2018,09,28,00,00,10.80
2018,09,28,00,01,10.80
2018,09,28,00,02,10.80
2018,09,28,00,03,10.80
2018,09,28,00,04,10.70
2018,09,28,00,05,10.70
2018,09,28,00,06,10.70
2018,09,28,00,07,10.70
2018,09,28,00,08,10.70
2018,09,28,00,09,10.70
2018,09,28,00,10,10.60
2018,09,28,00,11,10.60
2018,09,28,00,12,10.60
2018,09,28,00,13,10.60
2018,09,28,00,14,10.60
2018,09,28,00,15,10.60
2018,09,28,00,16,10.60
2018,09,28,00,17,10.60
2018,09,28,00,18,10.70
2018,09,28,00,19,10.80
2018,09,28,00,20,10.80
2018,09,28,00,21,10.80
2018,09,28,00,22,10.90
2018,09,28,00,23,10.90
2018,09,28,00,24,10.90
2018,09,28,00,25,10.90
2018,09,28,00,26,10.90
2018,09,28,00,27,11.00
2018,09,28,00,28,11.10
2018,09,28,00,29,11.20
2018,09,28,00,30,11.30
2018,09,28,00,31,11.30
2018,09,28,00,32,11.40
2018,09,28,00,33,11.40
2018,09,28,00,34,11.50
2018,09,28,00,35,11.70
2018,09,28,00,36,11.90
2018,09,28,00,37,12.00
2018,09,28,00,38,12.20
2018,09,28,00,39,12.30
2018,09,28,00,40,12.30
2018,09,28,00,41,12.40
2018,09,28,00,42,12.50
2018,09,28,00,43,12.60
2018,09,28,00,44,12.70
2018,09,28,00,45,12.80
2018,09,28,00,46,12.90
2018,09,28,00,47,13.00
2018,09,28,00,48,13.00
2018,09,28,00,49,13.10
2018,09,28,00,50,13.10
2018,09,28,00,51,13.20
2018,09,28,00,52,13.20
2018,09,28,00,53,13.30
2018,09,28,00,54,13.30
2018,09,28,00,55,13.40
2018,09,28,00,56,13.50
2018,09,28,00,57,13.60
2018,09,28,00,58,13.60
2018,09,28,00,59,13.70
2018,09,28,01,00,13.70
2018,09,28,01,01,13.70
2018,09,28,01,02,13.80
2018,09,28,01,03,13.80
2018,09,28,01,04,13.90
2018,09,28,01,05,13.90
2018,09,28,01,06,14.00
2018,09,28,01,07,14.00
2018,09,28,01,08,14.00
2018,09,28,01,09,14.10
2018,09,28,01,10,14.20
2018,09,28,01,11,14.20
2018,09,28,01,12,14.30
2018,09,28,01,13,14.30
2018,09,28,01,14,14.30
2018,09,28,01,15,14.40
2018,09,28,01,16,14.40
2018,09,28,01,17,14.50
2018,09,28,01,18,14.50
2018,09,28,01,19,14.60
2018,09,28,01,20,14.70
2018,09,28,01,21,14.70
2018,09,28,01,22,14.80
2018,09,28,01,23,14.80
2018,09,28,01,24,14.80
2018,09,28,01,25,14.80
2018,09,28,01,26,14.80
2018,09,28,01,27,14.90
2018,09,28,01,28,14.90
2018,09,28,01,29,14.90
2018,09,28,01,30,14.90
2018,09,28,01,31,14.90
2018,09,28,01,32,14.80
2018,09,28,01,33,14.80
2018,09,28,01,34,14.80
2018,09,28,01,35,14.90
2018,09,28,01,36,14.90
2018,09,28,01,37,14.90
2018,09,28,01,38,15.00
2018,09,28,01,39,15.00
2018,09,28,01,40,15.00
2018,09,28,01,41,15.00
2018,09,28,01,42,15.00
2018,09,28,01,43,15.00
2018,09,28,01,44,15.00
2018,09,28,01,45,15.00
2018,09,28,01,46,15.10
2018,09,28,01,47,15.10
2018,09,28,01,48,15.10
2018,09,28,01,49,15.20
2018,09,28,01,50,15.20
2018,09,28,01,51,15.20
2018,09,28,01,52,15.20
2018,09,28,01,53,15.20
2018,09,28,01,54,15.20
2018,09,28,01,55,15.20
2018,09,28,01,56,15.20
2018,09,28,01,57,15.20
2018,09,28,01,58,15.20
2018,09,28,01,59,15.20
2018,09,28,02,00,15.20
2018,09,28,02,01,15.20
2018,09,28,02,02,15.20
2018,09,28,02,03,15.30
2018,09,28,02,04,15.30
2018,09,28,02,05,15.30
2018,09,28,02,06,15.30
2018,09,28,02,07,15.30
2018,09,28,02,08,15.30
2018,09,28,02,09,15.30
2018,09,28,02,10,15.30
2018,09,28,02,11,15.30
2018,09,28,02,12,15.30
2018,09,28,02,13,15.30
2018,09,28,02,14,15.30
2018,09,28,02,15,15.30
2018,09,28,02,16,15.30
2018,09,28,02,17,15.30
2018,09,28,02,18,15.30
2018,09,28,02,19,15.30
2018,09,28,02,20,15.30
2018,09,28,02,21,15.30
2018,09,28,02,22,15.30
2018,09,28,02,23,15.30
2018,09,28,02,24,15.40
2018,09,28,02,25,15.40
2018,09,28,02,26,15.40
2018,09,28,02,27,15.40
2018,09,28,02,28,15.40
2018,09,28,02,29,15.40
2018,09,28,02,30,15.40
2018,09,28,02,31,15.40
2018,09,28,02,32,15.40
2018,09,28,02,33,15.50
2018,09,28,02,34,15.50
2018,09,28,02,35,15.50
2018,09,28,02,36,15.50
2018,09,28,02,37,15.50
2018,09,28,02,38,15.50
2018,09,28,02,39,15.60
2018,09,28,02,40,15.60
2018,09,28,02,41,15.60
2018,09,28,02,42,15.60
2018,09,28,02,43,15.60
2018,09,28,02,44,15.60
2018,09,28,02,45,15.60
2018,09,28,02,46,15.60
2018,09,28,02,47,15.60
2018,09,28,02,48,15.60
2018,09,28,02,49,15.60
2018,09,28,02,50,15.60
2018,09,28,02,51,15.60
2018,09,28,02,52,15.60
2018,09,28,02,53,15.60
2018,09,28,02,54,15.60
2018,09,28,02,55,15.60
2018,09,28,02,56,15.60
2018,09,28,02,57,15.70
2018,09,28,02,58,15.70
2018,09,28,02,59,15.70
2018,09,28,03,00,15.70
2018,09,28,03,01,15.70
2018,09,28,03,02,15.70
2018,09,28,03,03,15.70
2018,09,28,03,04,15.70
2018,09,28,03,05,15.70
2018,09,28,03,06,15.70
2018,09,28,03,07,15.70
2018,09,28,03,08,15.70
2018,09,28,03,09,15.70
2018,09,28,03,10,15.70
2018,09,28,03,11,15.70
2018,09,28,03,12,15.70
2018,09,28,03,13,15.70
2018,09,28,03,14,15.70
2018,09,28,03,15,15.70
2018,09,28,03,16,15.70
2018,09,28,03,17,15.70
2018,09,28,03,18,15.70
2018,09,28,03,19,15.60
2018,09,28,03,20,15.60
2018,09,28,03,21,15.60
2018,09,28,03,22,15.60
2018,09,28,03,23,15.60
2018,09,28,03,24,15.60
2018,09,28,03,25,15.50
2018,09,28,03,26,15.50
2018,09,28,03,27,15.50
2018,09,28,03,28,15.50
2018,09,28,03,29,15.50
2018,09,28,03,30,15.50
2018,09,28,03,31,15.50
2018,09,28,03,32,15.40
2018,09,28,03,33,15.40
2018,09,28,03,34,15.40
2018,09,28,03,35,15.40
2018,09,28,03,36,15.40
2018,09,28,03,37,15.40
2018,09,28,03,38,15.40
2018,09,28,03,39,15.40
2018,09,28,03,40,15.40
2018,09,28,03,41,15.40
2018,09,28,03,42,15.40
2018,09,28,03,43,15.40
2018,09,28,03,44,15.30
2018,09,28,03,45,15.30
2018,09,28,03,46,15.30
2018,09,28,03,47,15.30
2018,09,28,03,48,15.30
2018,09,28,03,49,15.30
2018,09,28,03,50,15.30
2018,09,28,03,51,15.30
2018,09,28,03,52,15.30
2018,09,28,03,53,15.30
2018,09,28,03,54,15.30
2018,09,28,03,55,15.30
2018,09,28,03,56,15.30
2018,09,28,03,57,15.30
2018,09,28,03,58,15.30
2018,09,28,03,59,15.30
2018,09,28,04,00,15.30
2018,09,28,04,01,15.20
2018,09,28,04,02,15.20
2018,09,28,04,03,15.20
2018,09,28,04,04,15.30
2018,09,28,04,05,15.30
2018,09,28,04,06,15.30
2018,09,28,04,07,15.30
2018,09,28,04,08,15.30
2018,09,28,04,09,15.30
2018,09,28,04,10,15.30
2018,09,28,04,11,15.30
2018,09,28,04,12,15.30
2018,09,28,04,13,15.30
2018,09,28,04,14,15.30
2018,09,28,04,15,15.30
2018,09,28,04,16,15.30
2018,09,28,04,17,15.30
2018,09,28,04,18,15.30
2018,09,28,04,19,15.30
2018,09,28,04,20,15.20
2018,09,28,04,21,15.20
2018,09,28,04,22,15.20
2018,09,28,04,23,15.20
2018,09,28,04,24,15.20
2018,09,28,04,25,15.20
2018,09,28,04,26,15.20
2018,09,28,04,27,15.10
2018,09,28,04,28,15.10
2018,09,28,04,29,15.10
2018,09,28,04,30,15.10
2018,09,28,04,31,15.10
2018,09,28,04,32,15.10
2018,09,28,04,33,15.10
2018,09,28,04,34,15.10
2018,09,28,04,35,15.10
2018,09,28,04,36,15.10
2018,09,28,04,37,15.10
2018,09,28,04,38,15.10
2018,09,28,04,39,15.10
2018,09,28,04,40,15.10
2018,09,28,04,41,15.10
2018,09,28,04,42,15.10
2018,09,28,04,43,15.00
2018,09,28,04,44,15.00
2018,09,28,04,45,15.00
2018,09,28,04,46,15.00
2018,09,28,04,47,15.00
2018,09,28,04,48,14.90
2018,09,28,04,49,14.90
2018,09,28,04,50,14.90
2018,09,28,04,51,14.90
2018,09,28,04,52,14.80
2018,09,28,04,53,14.80
2018,09,28,04,54,14.80
2018,09,28,04,55,14.80
2018,09,28,04,56,14.70
2018,09,28,04,57,14.70
2018,09,28,04,58,14.70
2018,09,28,04,59,14.60
2018,09,28,05,00,14.60
2018,09,28,05,01,14.60
2018,09,28,05,02,14.60
2018,09,28,05,03,14.60
2018,09,28,05,04,14.50
2018,09,28,05,05,14.60
2018,09,28,05,06,14.60
2018,09,28,05,07,14.60
2018,09,28,05,08,14.60
2018,09,28,05,09,14.60
2018,09,28,05,10,14.60
2018,09,28,05,11,14.50
2018,09,28,05,12,14.50
2018,09,28,05,13,14.50
2018,09,28,05,14,14.50
2018,09,28,05,15,14.50
2018,09,28,05,16,14.50
2018,09,28,05,17,14.50
2018,09,28,05,18,14.50
2018,09,28,05,19,14.40
2018,09,28,05,20,14.40
2018,09,28,05,21,14.50
2018,09,28,05,22,14.40
2018,09,28,05,23,14.40
2018,09,28,05,24,14.40
2018,09,28,05,25,14.40
2018,09,28,05,26,14.40
2018,09,28,05,27,14.40
2018,09,28,05,28,14.40
2018,09,28,05,29,14.40
2018,09,28,05,30,14.40
2018,09,28,05,31,14.40
2018,09,28,05,32,14.40
2018,09,28,05,33,14.50
2018,09,28,05,34,14.50
2018,09,28,05,35,14.60
2018,09,28,05,36,14.60
2018,09,28,05,37,14.60
2018,09,28,05,38,14.60
2018,09,28,05,39,14.60
2018,09,28,05,40,14.70
2018,09,28,05,41,14.70
2018,09,28,05,42,14.70
2018,09,28,05,43,14.70
2018,09,28,05,44,14.70
2018,09,28,05,45,14.70
2018,09,28,05,46,14.70
2018,09,28,05,47,14.70
2018,09,28,05,48,14.70
2018,09,28,05,49,14.70
2018,09,28,05,50,14.80
2018,09,28,05,51,14.80
2018,09,28,05,52,14.80
2018,09,28,05,53,14.80
2018,09,28,05,54,14.80
2018,09,28,05,55,14.80
2018,09,28,05,56,14.80
2018,09,28,05,57,14.80
2018,09,28,05,58,14.80
2018,09,28,05,59,14.80
2018,09,28,06,00,14.90
2018,09,28,06,01,14.90
2018,09,28,06,02,14.90
2018,09,28,06,03,14.90
2018,09,28,06,04,14.90
2018,09,28,06,05,14.90
2018,09,28,06,06,14.90
2018,09,28,06,07,14.90
2018,09,28,06,08,14.90
2018,09,28,06,09,14.90
2018,09,28,06,10,14.90
2018,09,28,06,11,14.90
2018,09,28,06,12,14.90
2018,09,28,06,13,14.90
2018,09,28,06,14,14.80
2018,09,28,06,15,14.80
2018,09,28,06,16,14.80
2018,09,28,06,17,14.80
2018,09,28,06,18,14.80
2018,09,28,06,19,14.80
2018,09,28,06,20,14.80
2018,09,28,06,21,14.80
2018,09,28,06,22,14.80
2018,09,28,06,23,14.80
2018,09,28,06,24,14.80
2018,09,28,06,25,14.80
2018,09,28,06,26,14.80
2018,09,28,06,27,14.70
2018,09,28,06,28,14.70
2018,09,28,06,29,14.70
2018,09,28,06,30,14.70
2018,09,28,06,31,14.70
2018,09,28,06,32,14.70
2018,09,28,06,33,14.70
2018,09,28,06,34,14.70
2018,09,28,06,35,14.70
2018,09,28,06,36,14.70
2018,09,28,06,37,14.70
2018,09,28,06,38,14.70
2018,09,28,06,39,14.70
2018,09,28,06,40,14.70
2018,09,28,06,41,14.70
2018,09,28,06,42,14.70
2018,09,28,06,43,14.70
2018,09,28,06,44,14.80
2018,09,28,06,45,14.80
2018,09,28,06,46,14.80
2018,09,28,06,47,14.80
2018,09,28,06,48,14.80
2018,09,28,06,49,14.80
2018,09,28,06,50,14.80
2018,09,28,06,51,14.80
2018,09,28,06,52,14.80
2018,09,28,06,53,14.80
2018,09,28,06,54,14.80
2018,09,28,06,55,14.80
2018,09,28,06,56,14.80
2018,09,28,06,57,14.80
2018,09,28,06,58,14.80
2018,09,28,06,59,14.80
2018,09,28,07,00,14.80
2018,09,28,07,01,14.80
2018,09,28,07,02,14.80
2018,09,28,07,03,14.80
2018,09,28,07,04,14.80
2018,09,28,07,05,14.80
2018,09,28,07,06,14.80
2018,09,28,07,07,14.80
2018,09,28,07,08,14.80
2018,09,28,07,09,14.80
2018,09,28,07,10,14.80
2018,09,28,07,11,14.80
2018,09,28,07,12,14.80
2018,09,28,07,13,14.80
2018,09,28,07,14,14.80
2018,09,28,07,15,14.70
2018,09,28,07,16,14.70
2018,09,28,07,17,14.70
2018,09,28,07,18,14.70
2018,09,28,07,19,14.70
2018,09,28,07,20,14.70
2018,09,28,07,21,14.70
2018,09,28,07,22,14.70
2018,09,28,07,23,14.70
2018,09,28,07,24,14.70
2018,09,28,07,25,14.70
2018,09,28,07,26,14.70
2018,09,28,07,27,14.70
2018,09,28,07,28,14.70
2018,09,28,07,29,14.70
2018,09,28,07,30,14.70
2018,09,28,07,31,14.70
2018,09,28,07,32,14.70
2018,09,28,07,33,14.70
2018,09,28,07,34,14.70
2018,09,28,07,35,14.70
2018,09,28,07,36,14.70
2018,09,28,07,37,14.70
2018,09,28,07,38,14.70
2018,09,28,07,39,14.80
2018,09,28,07,40,14.80
2018,09,28,07,41,14.80
2018,09,28,07,42,14.80
2018,09,28,07,43,14.80
2018,09,28,07,44,14.90
2018,09,28,07,45,14.90
2018,09,28,07,46,14.90
2018,09,28,07,47,14.90
2018,09,28,07,48,14.90
2018,09,28,07,49,15.00
2018,09,28,07,50,15.00
2018,09,28,07,51,15.00
2018,09,28,07,52,15.00
2018,09,28,07,53,15.00
2018,09,28,07,54,15.10
2018,09,28,07,55,15.10
2018,09,28,07,56,15.10
2018,09,28,07,57,15.10
2018,09,28,07,58,15.10
2018,09,28,07,59,15.10
2018,09,28,08,00,15.10
2018,09,28,08,01,15.10
2018,09,28,08,02,15.20
2018,09,28,08,03,15.20
2018,09,28,08,04,15.20
2018,09,28,08,05,15.20
2018,09,28,08,06,15.20
2018,09,28,08,07,15.10
2018,09,28,08,08,15.10
2018,09,28,08,09,15.10
2018,09,28,08,10,15.10
2018,09,28,08,11,15.10
2018,09,28,08,12,15.10
2018,09,28,08,13,15.10
2018,09,28,08,14,15.10
2018,09,28,08,15,15.20
2018,09,28,08,16,15.20
2018,09,28,08,17,15.20
2018,09,28,08,18,15.20
2018,09,28,08,19,15.20
2018,09,28,08,20,15.20
2018,09,28,08,21,15.30
2018,09,28,08,22,15.30
2018,09,28,08,23,15.40
2018,09,28,08,24,15.40
2018,09,28,08,25,15.50
2018,09,28,08,26,15.60
2018,09,28,08,27,15.70
2018,09,28,08,28,15.70
2018,09,28,08,29,15.80
2018,09,28,08,30,15.90
2018,09,28,08,31,15.90
2018,09,28,08,32,16.00
2018,09,28,08,33,16.10
2018,09,28,08,34,16.20
2018,09,28,08,35,16.20
2018,09,28,08,36,16.30
2018,09,28,08,37,16.30
2018,09,28,08,38,16.40
2018,09,28,08,39,16.40
2018,09,28,08,40,16.50
2018,09,28,08,41,16.50
2018,09,28,08,42,16.60
2018,09,28,08,43,16.70
2018,09,28,08,44,16.70
2018,09,28,08,45,16.80
2018,09,28,08,46,16.90
2018,09,28,08,47,16.90
2018,09,28,08,48,17.00
2018,09,28,08,49,17.00
2018,09,28,08,50,17.10
2018,09,28,08,51,17.20
2018,09,28,08,52,17.20
2018,09,28,08,53,17.30
2018,09,28,08,54,17.30
2018,09,28,08,55,17.40
2018,09,28,08,56,17.40
2018,09,28,08,57,17.40
2018,09,28,08,58,17.50
2018,09,28,08,59,17.60
2018,09,28,09,00,17.60
2018,09,28,09,01,17.60
2018,09,28,09,02,17.70
2018,09,28,09,03,17.70
2018,09,28,09,04,17.70
2018,09,28,09,05,17.80
2018,09,28,09,06,17.80
2018,09,28,09,07,17.90
2018,09,28,09,08,17.90
2018,09,28,09,09,17.90
2018,09,28,09,10,17.90
2018,09,28,09,11,18.00
2018,09,28,09,12,18.00
2018,09,28,09,13,18.00
2018,09,28,09,14,18.00
2018,09,28,09,15,18.10
2018,09,28,09,16,18.10
2018,09,28,09,17,18.20
2018,09,28,09,18,18.30
2018,09,28,09,19,18.40
2018,09,28,09,20,18.40
2018,09,28,09,21,18.40
2018,09,28,09,22,18.50
2018,09,28,09,23,18.50
2018,09,28,09,24,18.60
2018,09,28,09,25,18.60
2018,09,28,09,26,18.60
2018,09,28,09,27,18.70
2018,09,28,09,28,18.70
2018,09,28,09,29,18.80
2018,09,28,09,30,18.80
2018,09,28,09,31,18.90
2018,09,28,09,32,18.90
2018,09,28,09,33,18.90
2018,09,28,09,34,19.00
2018,09,28,09,35,19.00
2018,09,28,09,36,19.10
2018,09,28,09,37,19.10
2018,09,28,09,38,19.20
2018,09,28,09,39,19.20
2018,09,28,09,40,19.20
2018,09,28,09,41,19.30
2018,09,28,09,42,19.30
2018,09,28,09,43,19.30
2018,09,28,09,44,19.30
2018,09,28,09,45,19.30
2018,09,28,09,46,19.30
2018,09,28,09,47,19.30
2018,09,28,09,48,19.30
2018,09,28,09,49,19.30
2018,09,28,09,50,19.30
2018,09,28,09,51,19.30
2018,09,28,09,52,19.30
2018,09,28,09,53,19.30
2018,09,28,09,54,19.40
2018,09,28,09,55,19.40
2018,09,28,09,56,19.40
2018,09,28,09,57,19.50
2018,09,28,09,58,19.60
2018,09,28,09,59,19.60
2018,09,28,10,00,19.60
2018,09,28,10,01,19.70
2018,09,28,10,02,19.70
2018,09,28,10,03,19.80
2018,09,28,10,04,19.80
2018,09,28,10,05,19.70
2018,09,28,10,06,19.70
2018,09,28,10,07,19.80
2018,09,28,10,08,19.80
2018,09,28,10,09,19.80
2018,09,28,10,10,19.90
2018,09,28,10,11,20.00
2018,09,28,10,12,20.10
2018,09,28,10,13,20.20
2018,09,28,10,14,20.30
2018,09,28,10,15,20.40
2018,09,28,10,16,20.50
2018,09,28,10,17,20.60
2018,09,28,10,18,20.70
2018,09,28,10,19,20.80
2018,09,28,10,20,20.90
2018,09,28,10,21,20.90
2018,09,28,10,22,21.00
2018,09,28,10,23,21.10
2018,09,28,10,24,21.20
2018,09,28,10,25,21.20
2018,09,28,10,26,21.30
2018,09,28,10,27,21.40
2018,09,28,10,28,21.50
2018,09,28,10,29,21.60
2018,09,28,10,30,21.70
2018,09,28,10,31,21.70
2018,09,28,10,32,21.70
2018,09,28,10,33,21.70
2018,09,28,10,34,21.70
2018,09,28,10,35,21.70
2018,09,28,10,36,21.70
2018,09,28,10,37,21.70
2018,09,28,10,38,21.70
2018,09,28,10,39,21.80
2018,09,28,10,40,21.80
2018,09,28,10,41,21.80
2018,09,28,10,42,21.80
2018,09,28,10,43,21.90
2018,09,28,10,44,21.90
2018,09,28,10,45,22.00
2018,09,28,10,46,22.00
2018,09,28,10,47,22.10
2018,09,28,10,48,22.20
2018,09,28,10,49,22.20
2018,09,28,10,50,22.30
2018,09,28,10,51,22.30
2018,09,28,10,52,22.40
2018,09,28,10,53,22.30
2018,09,28,10,54,22.30
2018,09,28,10,55,22.30
2018,09,28,10,56,22.30
2018,09,28,10,57,22.30
2018,09,28,10,58,22.40
2018,09,28,10,59,22.40
2018,09,28,11,00,22.40
2018,09,28,11,01,22.40
2018,09,28,11,02,22.40
2018,09,28,11,03,22.40
2018,09,28,11,04,22.40
2018,09,28,11,05,22.40
2018,09,28,11,06,22.40
2018,09,28,11,07,22.30
2018,09,28,11,08,22.20
2018,09,28,11,09,22.20
2018,09,28,11,10,22.10
2018,09,28,11,11,22.10
2018,09,28,11,12,22.10
2018,09,28,11,13,22.00
2018,09,28,11,14,22.00
2018,09,28,11,15,21.90
2018,09,28,11,16,21.90
2018,09,28,11,17,21.90
2018,09,28,11,18,22.00
2018,09,28,11,19,22.00
2018,09,28,11,20,22.00
2018,09,28,11,21,22.00
2018,09,28,11,22,22.00
2018,09,28,11,23,21.90
2018,09,28,11,24,21.90
2018,09,28,11,25,21.80
2018,09,28,11,26,21.80
2018,09,28,11,27,21.80
2018,09,28,11,28,21.90
2018,09,28,11,29,21.90
2018,09,28,11,30,21.90
2018,09,28,11,31,22.00
2018,09,28,11,32,22.00
2018,09,28,11,33,22.00
2018,09,28,11,34,22.10
2018,09,28,11,35,22.10
2018,09,28,11,36,22.20
2018,09,28,11,37,22.30
2018,09,28,11,38,22.30
2018,09,28,11,39,22.40
2018,09,28,11,40,22.40
2018,09,28,11,41,22.50
2018,09,28,11,42,22.50
2018,09,28,11,43,22.50
2018,09,28,11,44,22.40
2018,09,28,11,45,22.40
2018,09,28,11,46,22.40
2018,09,28,11,47,22.30
2018,09,28,11,48,22.30
2018,09,28,11,49,22.30
2018,09,28,11,50,22.30
2018,09,28,11,51,22.30
2018,09,28,11,52,22.30
2018,09,28,11,53,22.30
2018,09,28,11,54,22.30
2018,09,28,11,55,22.30
2018,09,28,11,56,22.30
2018,09,28,11,57,22.40
2018,09,28,11,58,22.50
2018,09,28,11,59,22.50
2018,09,28,12,00,22.50
2018,09,28,12,01,22.50
2018,09,28,12,02,22.40
2018,09,28,12,03,22.40
2018,09,28,12,04,22.40
2018,09,28,12,05,22.40
2018,09,28,12,06,22.40
2018,09,28,12,07,22.40
2018,09,28,12,08,22.50
2018,09,28,12,09,22.50
2018,09,28,12,10,22.60
2018,09,28,12,11,22.60
2018,09,28,12,12,22.60
2018,09,28,12,13,22.70
2018,09,28,12,14,22.70
2018,09,28,12,15,22.70
2018,09,28,12,16,22.70
2018,09,28,12,17,22.80
2018,09,28,12,18,22.80
2018,09,28,12,19,22.90
2018,09,28,12,20,22.90
2018,09,28,12,21,23.00
2018,09,28,12,22,23.10
2018,09,28,12,23,23.10
2018,09,28,12,24,23.10
2018,09,28,12,25,23.10
2018,09,28,12,26,23.20
2018,09,28,12,27,23.20
2018,09,28,12,28,23.20
2018,09,28,12,29,23.30
2018,09,28,12,30,23.40
2018,09,28,12,31,23.40
2018,09,28,12,32,23.40
2018,09,28,12,33,23.40
2018,09,28,12,34,23.40
2018,09,28,12,35,23.40
2018,09,28,12,36,23.30
2018,09,28,12,37,23.30
2018,09,28,12,38,23.20
2018,09,28,12,39,23.00
2018,09,28,12,40,22.90
2018,09,28,12,41,22.90
2018,09,28,12,42,22.80
2018,09,28,12,43,22.80
2018,09,28,12,44,22.70
2018,09,28,12,45,22.70
2018,09,28,12,46,22.70
2018,09,28,12,47,22.70
2018,09,28,12,48,22.70
2018,09,28,12,49,22.80
2018,09,28,12,50,22.80
2018,09,28,12,51,22.80
2018,09,28,12,52,22.80
2018,09,28,12,53,22.80
2018,09,28,12,54,22.80
2018,09,28,12,55,22.80
2018,09,28,12,56,22.80
2018,09,28,12,57,22.70
2018,09,28,12,58,22.80
2018,09,28,12,59,22.80
2018,09,28,13,00,22.80
2018,09,28,13,01,22.80
2018,09,28,13,02,22.80
2018,09,28,13,03,22.80
2018,09,28,13,04,22.80
2018,09,28,13,05,22.80
2018,09,28,13,06,22.80
2018,09,28,13,07,22.80
2018,09,28,13,08,22.80
2018,09,28,13,09,22.70
2018,09,28,13,10,22.70
2018,09,28,13,11,22.70
2018,09,28,13,12,22.70
2018,09,28,13,13,22.70
2018,09,28,13,14,22.70
2018,09,28,13,15,22.70
2018,09,28,13,16,22.70
2018,09,28,13,17,22.70
2018,09,28,13,18,22.80
2018,09,28,13,19,22.70
2018,09,28,13,20,22.70
2018,09,28,13,21,22.70
2018,09,28,13,22,22.70
2018,09,28,13,23,22.70
2018,09,28,13,24,22.70
2018,09,28,13,25,22.70
2018,09,28,13,26,22.80
2018,09,28,13,27,22.80
2018,09,28,13,28,22.80
2018,09,28,13,29,22.90
2018,09,28,13,30,22.90
2018,09,28,13,31,22.90
2018,09,28,13,32,23.00
2018,09,28,13,33,23.00
2018,09,28,13,34,23.00
2018,09,28,13,35,22.90
2018,09,28,13,36,23.00
2018,09,28,13,37,23.00
2018,09,28,13,38,23.00
2018,09,28,13,39,22.90
2018,09,28,13,40,22.90
2018,09,28,13,41,22.80
2018,09,28,13,42,22.80
2018,09,28,13,43,22.80
2018,09,28,13,44,22.80
2018,09,28,13,45,22.80
2018,09,28,13,46,22.90
2018,09,28,13,47,22.90
2018,09,28,13,48,23.00
2018,09,28,13,49,23.00
2018,09,28,13,50,23.10
2018,09,28,13,51,23.20
2018,09,28,13,52,23.20
2018,09,28,13,53,23.30
2018,09,28,13,54,23.30
2018,09,28,13,55,23.40
2018,09,28,13,56,23.40
2018,09,28,13,57,23.50
2018,09,28,13,58,23.50
2018,09,28,13,59,23.50
2018,09,28,14,00,23.50
2018,09,28,14,01,23.40
2018,09,28,14,02,23.40
2018,09,28,14,03,23.40
2018,09,28,14,04,23.50
2018,09,28,14,05,23.40
2018,09,28,14,06,23.50
2018,09,28,14,07,23.50
2018,09,28,14,08,23.60
2018,09,28,14,09,23.70
2018,09,28,14,10,23.70
2018,09,28,14,11,23.70
2018,09,28,14,12,23.80
2018,09,28,14,13,23.80
2018,09,28,14,14,23.90
2018,09,28,14,15,23.90
2018,09,28,14,16,23.90
2018,09,28,14,17,23.80
2018,09,28,14,18,23.80
2018,09,28,14,19,23.70
2018,09,28,14,20,23.70
2018,09,28,14,21,23.70
2018,09,28,14,22,23.70
2018,09,28,14,23,23.80
2018,09,28,14,24,23.80
2018,09,28,14,25,23.90
2018,09,28,14,26,23.90
2018,09,28,14,27,23.90
2018,09,28,14,28,23.90
2018,09,28,14,29,23.90
2018,09,28,14,30,23.90
2018,09,28,14,31,23.90
2018,09,28,14,32,23.90
2018,09,28,14,33,23.90
2018,09,28,14,34,24.00
2018,09,28,14,35,24.00
2018,09,28,14,36,23.80
2018,09,28,14,37,23.80
2018,09,28,14,38,23.80
2018,09,28,14,39,23.80
2018,09,28,14,40,23.80
2018,09,28,14,41,23.80
2018,09,28,14,42,23.80
2018,09,28,14,43,23.80
2018,09,28,14,44,23.80
2018,09,28,14,45,23.80
2018,09,28,14,46,23.90
2018,09,28,14,47,23.90
2018,09,28,14,48,23.80
2018,09,28,14,49,23.80
2018,09,28,14,50,23.80
2018,09,28,14,51,23.80
2018,09,28,14,52,23.80
2018,09,28,14,53,23.80
2018,09,28,14,54,23.80
2018,09,28,14,55,23.80
2018,09,28,14,56,23.70
2018,09,28,14,57,23.70
2018,09,28,14,58,23.70
2018,09,28,14,59,23.70
2018,09,28,15,00,23.70
2018,09,28,15,01,23.70
2018,09,28,15,02,23.70
2018,09,28,15,03,23.80
2018,09,28,15,04,23.80
2018,09,28,15,05,23.80
2018,09,28,15,06,23.80
2018,09,28,15,07,23.80
2018,09,28,15,08,23.80
2018,09,28,15,09,23.80
2018,09,28,15,10,23.90
2018,09,28,15,11,23.90
2018,09,28,15,12,23.90
2018,09,28,15,13,23.90
2018,09,28,15,14,23.90
2018,09,28,15,15,23.90
2018,09,28,15,16,23.90
2018,09,28,15,17,23.90
2018,09,28,15,18,23.80
2018,09,28,15,19,23.90
2018,09,28,15,20,23.90
2018,09,28,15,21,23.90
2018,09,28,15,22,24.00
2018,09,28,15,23,24.00
2018,09,28,15,24,24.00
2018,09,28,15,25,24.10
2018,09,28,15,26,24.10
2018,09,28,15,27,24.10
2018,09,28,15,28,24.10
2018,09,28,15,29,24.20
2018,09,28,15,30,24.20
2018,09,28,15,31,24.20
2018,09,28,15,32,24.20
2018,09,28,15,33,24.20
2018,09,28,15,34,24.20
2018,09,28,15,35,24.10
2018,09,28,15,36,24.00
2018,09,28,15,37,24.00
2018,09,28,15,38,23.90
2018,09,28,15,39,23.90
2018,09,28,15,40,23.90
2018,09,28,15,41,23.90
2018,09,28,15,42,23.90
2018,09,28,15,43,23.90
2018,09,28,15,44,23.90
2018,09,28,15,45,23.90
2018,09,28,15,46,23.80
2018,09,28,15,47,23.80
2018,09,28,15,48,23.80
2018,09,28,15,49,23.80
2018,09,28,15,50,23.80
2018,09,28,15,51,23.80
2018,09,28,15,52,23.90
2018,09,28,15,53,23.90
2018,09,28,15,54,24.00
2018,09,28,15,55,24.00
2018,09,28,15,56,24.00
2018,09,28,15,57,24.00
2018,09,28,15,58,24.00
2018,09,28,15,59,24.00
2018,09,28,16,00,24.00
2018,09,28,16,01,24.00
2018,09,28,16,02,24.00
2018,09,28,16,03,24.00
2018,09,28,16,04,24.00
2018,09,28,16,05,24.00
2018,09,28,16,06,24.10
2018,09,28,16,07,24.20
2018,09,28,16,08,24.20
2018,09,28,16,09,24.20
2018,09,28,16,10,24.30
2018,09,28,16,11,24.30
2018,09,28,16,12,24.20
2018,09,28,16,13,24.20
2018,09,28,16,14,24.20
2018,09,28,16,15,24.20
2018,09,28,16,16,24.20
2018,09,28,16,17,24.10
2018,09,28,16,18,24.10
2018,09,28,16,19,24.10
2018,09,28,16,20,24.10
2018,09,28,16,21,24.10
2018,09,28,16,22,24.10
2018,09,28,16,23,24.10
2018,09,28,16,24,24.20
2018,09,28,16,25,24.20
2018,09,28,16,26,24.20
2018,09,28,16,27,24.20
2018,09,28,16,28,24.20
2018,09,28,16,29,24.20
2018,09,28,16,30,24.10
2018,09,28,16,31,24.10
2018,09,28,16,32,24.10
2018,09,28,16,33,24.10
2018,09,28,16,34,24.10
2018,09,28,16,35,24.00
2018,09,28,16,36,24.00
2018,09,28,16,37,24.00
2018,09,28,16,38,23.90
2018,09,28,16,39,24.00
2018,09,28,16,40,23.90
2018,09,28,16,41,23.90
2018,09,28,16,42,23.90
2018,09,28,16,43,23.90
2018,09,28,16,44,23.90
2018,09,28,16,45,23.90
2018,09,28,16,46,23.90
2018,09,28,16,47,23.90
2018,09,28,16,48,24.00
2018,09,28,16,49,24.00
2018,09,28,16,50,24.00
2018,09,28,16,51,24.00
2018,09,28,16,52,24.00
2018,09,28,16,53,24.00
2018,09,28,16,54,24.00
2018,09,28,16,55,24.00
2018,09,28,16,56,24.00
2018,09,28,16,57,24.10
2018,09,28,16,58,24.10
2018,09,28,16,59,24.10
2018,09,28,17,00,24.10
2018,09,28,17,01,24.10
2018,09,28,17,02,24.00
2018,09,28,17,03,24.00
2018,09,28,17,04,23.90
2018,09,28,17,05,23.90
2018,09,28,17,06,23.90
2018,09,28,17,07,23.90
2018,09,28,17,08,23.90
2018,09,28,17,09,23.90
2018,09,28,17,10,23.80
2018,09,28,17,11,23.90
2018,09,28,17,12,23.90
2018,09,28,17,13,23.90
2018,09,28,17,14,23.90
2018,09,28,17,15,23.80
2018,09,28,17,16,23.90
2018,09,28,17,17,23.90
2018,09,28,17,18,23.90
2018,09,28,17,19,23.90